Weather History for Moncks Corner, SC

Change the Weather History Date:

Thursday, December 13, 2012

  Actual Average (KCHS) Record (KCHS)
Temperature  
Mean Temperature 46 °F 51 °F  
Max Temperature 50 °F 62 °F 80 °F (1956)
Min Temperature 42 °F 41 °F 8 °F (1962)
Degree Days  
Heating Degree Days 19 14  
Month to date heating degree days 164  
Since 1 July heating degree days 456  
Cooling Degree Days 0 0  
Month to date cooling degree days 0  
Year to date cooling degree days 2297  
Moisture  
Dew Point 42 °F    
Average Humidity 85    
Maximum Humidity 93    
Minimum Humidity 76    
Precipitation  
Precipitation 0.12 in 0.10 in 2.13 in (1954)
Month to date precipitation 1.21  
Year to date precipitation 49.13  
Sea Level Pressure  
Sea Level Pressure 30.27 in    
Wind  
Wind Speed 8 mph (NNE)    
Max Wind Speed 14 mph    
Max Gust Speed 22 mph    
Visibility 8 miles    
Events Rain    
T = Trace of Precipitation, MM = Missing Value Source: NWS Daily Summary

Daily Weather History Graph

Daily Weather History Graph

Search for Another Location

Airport:

Trip Planner

Search our weather history database for the weather conditions in past years. The results will help you decide how hot, cold, wet, or windy it might be!

Date:

Astronomy

Dec. 13, 2012 Rise Set
Actual Time 7:15 AM EST 5:14 PM EST
Civil Twilight 6:47 AM EST 5:41 PM EST
Nautical Twilight 6:16 AM EST 6:12 PM EST
Astronomical Twilight 5:46 AM EST 6:42 PM EST
Moon 7:22 AM EST (12/13) 5:53 PM EST (12/13)
Length of Visible Light 10h 53m
Length of Day
9h 58m
New Moon, 0% of the Moon is Illuminated
Dec 13
New Moon
Dec 20
First Quarter
Dec 28
Full
Jan 4
Last Quarter
Jan 11
New

Hourly Weather History & Observations

Time (EST) Temp. Windchill Dew Point Humidity Pressure Visibility Wind Dir Wind Speed Gust Speed Precip Events Conditions
12:15 AM 44.6 °F 42.2 °F 42.8 °F 93% 30.20 in 10.0 mi NNE 4.6 mph - N/A   Light Drizzle
12:35 AM 44.6 °F 40.2 °F 42.8 °F 93% 30.20 in 10.0 mi North 8.1 mph - N/A   Unknown
12:55 AM 46.4 °F 42.9 °F 42.8 °F 87% 30.21 in 10.0 mi North 6.9 mph - N/A Rain Light Rain
1:15 AM 46.4 °F 43.5 °F 42.8 °F 87% 30.21 in 10.0 mi North 5.8 mph - N/A Rain Light Rain
1:35 AM 44.6 °F 38.8 °F 42.8 °F 93% 30.21 in 7.0 mi North 11.5 mph 17.3 mph N/A   Unknown
1:55 AM 44.6 °F 38.8 °F 42.8 °F 93% 30.21 in 10.0 mi North 11.5 mph 18.4 mph N/A   Unknown
2:15 AM 44.6 °F 38.1 °F 41.0 °F 87% 30.21 in 10.0 mi North 13.8 mph 19.6 mph N/A   Unknown
2:35 AM 44.6 °F 39.2 °F 41.0 °F 87% 30.20 in 10.0 mi NNE 10.4 mph 19.6 mph N/A   Unknown
2:55 AM 44.6 °F 39.2 °F 41.0 °F 87% 30.20 in 7.0 mi North 10.4 mph 17.3 mph N/A   Unknown
3:15 AM 44.6 °F 40.7 °F 41.0 °F 87% 30.20 in 10.0 mi North 6.9 mph 18.4 mph N/A   Unknown
3:35 AM 44.6 °F 39.2 °F 41.0 °F 87% 30.20 in 7.0 mi NNE 10.4 mph 18.4 mph 0.01 in Rain Rain
3:55 AM 42.8 °F 37.0 °F 41.0 °F 93% 30.19 in 4.0 mi NNE 10.4 mph 17.3 mph 0.08 in Rain Heavy Rain
4:15 AM 42.8 °F 37.0 °F 41.0 °F 93% 30.18 in 10.0 mi NE 10.4 mph 18.4 mph 0.01 in Rain Light Rain
4:35 AM 42.8 °F 38.6 °F 39.2 °F 87% 30.18 in 10.0 mi NNE 6.9 mph - 0.01 in   Unknown
4:55 AM 42.8 °F 39.3 °F 39.2 °F 87% 30.19 in 7.0 mi North 5.8 mph - 0.01 in Rain Light Rain
5:15 AM 42.8 °F 38.0 °F 41.0 °F 93% 30.18 in 10.0 mi NNE 8.1 mph - 0.01 in Rain Rain
5:35 AM 42.8 °F 38.0 °F 41.0 °F 93% 30.21 in 10.0 mi North 8.1 mph - 0.02 in Rain Light Rain
6:15 AM 44.6 °F 38.8 °F 41.0 °F 87% 30.23 in 10.0 mi North 11.5 mph - N/A   Unknown
6:35 AM 42.8 °F 37.0 °F 41.0 °F 93% 30.24 in 10.0 mi North 10.4 mph 17.3 mph 0.01 in Rain Light Rain
6:55 AM 42.8 °F 36.2 °F 41.0 °F 93% 30.25 in 10.0 mi North 12.7 mph 21.9 mph 0.01 in Rain Light Rain
7:15 AM 42.8 °F 36.6 °F 41.0 °F 93% 30.26 in 10.0 mi North 11.5 mph 17.3 mph N/A Rain Light Rain
7:35 AM 42.8 °F 36.6 °F 41.0 °F 93% 30.26 in 10.0 mi North 11.5 mph 21.9 mph N/A   Light Drizzle
7:55 AM 42.8 °F 36.2 °F 41.0 °F 93% 30.27 in 10.0 mi North 12.7 mph 18.4 mph N/A   Light Drizzle
8:15 AM 42.8 °F 37.5 °F 39.2 °F 87% 30.28 in 7.0 mi NNE 9.2 mph 17.3 mph N/A   Unknown
8:35 AM 42.8 °F 36.6 °F 39.2 °F 87% 30.29 in 7.0 mi NNE 11.5 mph 18.4 mph N/A   Unknown
8:55 AM 42.8 °F 35.8 °F 39.2 °F 87% 30.29 in 5.0 mi NNE 13.8 mph 18.4 mph N/A   Mist
9:15 AM 42.8 °F 37.0 °F 39.2 °F 87% 30.30 in 7.0 mi North 10.4 mph 20.7 mph N/A   Unknown
9:35 AM 42.8 °F 37.0 °F 39.2 °F 87% 30.31 in 7.0 mi NNE 10.4 mph 19.6 mph N/A   Unknown
9:55 AM 42.8 °F 37.0 °F 39.2 °F 87% 30.32 in 7.0 mi North 10.4 mph 20.7 mph N/A   Unknown
10:35 AM 44.6 °F 39.2 °F 41.0 °F 87% 30.33 in 5.0 mi NNE 10.4 mph - N/A   Mist
10:55 AM 44.6 °F 40.2 °F 41.0 °F 87% 30.33 in 7.0 mi NNE 8.1 mph - N/A   Unknown
11:15 AM 44.6 °F 39.7 °F 41.0 °F 87% 30.33 in 7.0 mi NNE 9.2 mph - N/A   Unknown
11:35 AM 44.6 °F 41.4 °F 41.0 °F 87% 30.32 in 4.0 mi NNE 5.8 mph - N/A   Mist
11:55 AM 44.6 °F 39.2 °F 41.0 °F 87% 30.31 in 4.0 mi NNE 10.4 mph - N/A   Mist
12:15 PM 44.6 °F 39.7 °F 41.0 °F 87% 30.30 in 7.0 mi NE 9.2 mph - N/A   Unknown
12:35 PM 44.6 °F 39.2 °F 41.0 °F 87% 30.29 in 7.0 mi NNE 10.4 mph - N/A   Unknown
12:55 PM 46.4 °F 41.9 °F 41.0 °F 81% 30.29 in 7.0 mi NNE 9.2 mph - N/A   Unknown
1:15 PM 46.4 °F 42.4 °F 41.0 °F 81% 30.29 in 10.0 mi NNE 8.1 mph - N/A   Unknown
1:35 PM 46.4 °F 41.9 °F 41.0 °F 81% 30.29 in 5.0 mi North 9.2 mph - N/A   Haze
1:55 PM 46.4 °F 43.5 °F 42.8 °F 87% 30.28 in 5.0 mi NNE 5.8 mph - N/A   Haze
2:15 PM 48.2 °F - 42.8 °F 82% 30.28 in 7.0 mi NNE 8.1 mph - N/A   Unknown
2:35 PM 48.2 °F - 42.8 °F 82% 30.28 in 7.0 mi North 9.2 mph - N/A   Unknown
2:55 PM 48.2 °F - 42.8 °F 82% 30.28 in 7.0 mi North 4.6 mph - N/A   Unknown
3:15 PM 48.2 °F - 42.8 °F 82% 30.28 in 5.0 mi North 6.9 mph - N/A   Haze
3:35 PM 48.2 °F - 42.8 °F 82% 30.27 in 7.0 mi North 9.2 mph - N/A   Unknown
3:55 PM 50.0 °F - 42.8 °F 76% 30.27 in 5.0 mi North 6.9 mph - N/A   Haze
4:15 PM 50.0 °F - 42.8 °F 76% 30.27 in 7.0 mi North 6.9 mph - N/A   Unknown
4:35 PM 50.0 °F - 42.8 °F 76% 30.27 in 7.0 mi North 5.8 mph - N/A   Unknown
4:55 PM 50.0 °F - 42.8 °F 76% 30.27 in 7.0 mi North 5.8 mph - N/A   Unknown
5:15 PM 50.0 °F - 44.6 °F 82% 30.28 in 7.0 mi North 8.1 mph - N/A   Unknown
5:35 PM 50.0 °F - 44.6 °F 82% 30.29 in 10.0 mi North 5.8 mph - N/A   Unknown
6:15 PM 50.0 °F - 42.8 °F 76% 30.29 in 10.0 mi North 4.6 mph - N/A   Unknown
6:35 PM 50.0 °F - 44.6 °F 82% 30.30 in 10.0 mi North 5.8 mph - N/A   Unknown
7:55 PM 50.0 °F - 42.8 °F 76% 30.31 in 7.0 mi North 4.6 mph - N/A   Unknown
8:15 PM 50.0 °F - 42.8 °F 76% 30.31 in 10.0 mi NNE 5.8 mph - N/A   Unknown
8:35 PM 50.0 °F - 42.8 °F 76% 30.31 in 10.0 mi NNE 6.9 mph - N/A   Unknown
8:55 PM 50.0 °F - 42.8 °F 76% 30.31 in 10.0 mi NNE 8.1 mph - N/A   Unknown
9:15 PM 50.0 °F - 42.8 °F 76% 30.32 in 10.0 mi NNE 6.9 mph - N/A   Unknown
9:35 PM 48.2 °F - 41.0 °F 76% 30.32 in 10.0 mi NE 8.1 mph - N/A   Unknown
9:55 PM 48.2 °F - 41.0 °F 76% 30.31 in 10.0 mi NE 9.2 mph - N/A   Unknown
10:15 PM 48.2 °F - 41.0 °F 76% 30.31 in 10.0 mi NE 8.1 mph - N/A   Unknown
10:35 PM 46.4 °F 42.9 °F 41.0 °F 81% 30.31 in 10.0 mi NE 6.9 mph - N/A   Unknown
11:15 PM 46.4 °F 43.5 °F 41.0 °F 81% 30.31 in 10.0 mi North 5.8 mph - N/A   Unknown
11:35 PM 46.4 °F 43.5 °F 41.0 °F 81% 30.32 in 7.0 mi NNE 5.8 mph - N/A   Unknown
11:55 PM 46.4 °F 42.4 °F 41.0 °F 81% 30.31 in 10.0 mi NE 8.1 mph - N/A   Unknown